Current weather by "City, St" or "zip code"  
 

Current Conditions: Wiscasset Airport, ME

Overcast


59.0 F

Last Updated on Oct 24 2020, 11:53 am EDT
Humidity: 78%
Wind Speed: SW 6.9 mph
Barometer 29.87 in
Dewpoint: 52.0 F
Visibility: 10.00 mi
Precip: --
Heat Index: NA
Wind Chill: 58 F
Current conditions at:

Wiscasset Airport, ME (KIWI)

Lat: 43.96401 Lon: 69.71076

Local Radar Image active severe weather and emergency alerts image image weather storm and storm spotter reports image weather observation monitoring service image
Local
Radar
Active
Alerts
Storm Reports Obs
Monitoring

Sign-up For Email & Text Message Weather Alert Notification Services



Advertise Here

Observation History for Wiscasset Airport, ME


Time Wind
(mph)
Vis
(mi)
Weather Precip (in) Temperature (F) Relative
Humidity
Wind
Chill
(F)
Heat
Index
(F)
Pressure
Air Dwpt altimeter
(in)
sea level
(mb)
Rmks
11:53 am EDT SW 6.9 10.00 Overcast -- 59.0 52.0 78% 58 NA 29.87 1011.6
10:53 am EDT SW 9.2 10.00 Overcast -- 57.0 52.0 83% 55 NA 29.89 1012.3
9:53 am EDT 5.8 10.00 Overcast -- 57.0 53.1 87% 56 NA 29.91 1012.9
8:53 am EDT SW 6.9 10.00 Overcast -- 56.0 53.1 90% 54 NA 29.94 1013.7
7:53 am EDT S 3.5 10.00 Overcast -- 55.0 54.0 96% NA NA 29.95 1014.1
6:53 am EDT S 4.6 10.00 Overcast -- 55.0 54.0 96% 54 NA 29.96 1014.4
5:53 am EDT N 0.0 10.00 Overcast -- 55.0 54.0 96% NA NA 29.98 1015.1
4:53 am EDT S 3.5 10.00 Overcast -- 55.0 54.0 96% NA NA 30.00 1016.0
3:53 am EDT N 0.0 10.00 Overcast -- 55.0 54.0 96% NA NA 30.02 1016.7
2:53 am EDT N 0.0 10.00 Overcast -- 55.0 54.0 96% NA NA 30.03 1017.0
1:53 am EDT N 0.0 10.00 Overcast -- 55.0 55.0 100% NA NA 30.06 1017.7
12:53 am EDT S 3.5 1.00 Fog/Mist -- 55.0 55.0 100% NA NA 30.08 1018.5
11:53 pm EDT 3.5 0.50 Fog -- 55.0 55.0 100% NA NA 30.08 1018.7
10:53 pm EDT 3.5 0.50 Fog -- 55.0 55.0 100% NA NA 30.10 1019.4
9:53 pm EDT N 0.0 0.75 Fog/Mist -- 55.0 55.0 100% NA NA 30.12 1020.0
8:53 pm EDT SE 4.6 2.50 Fog/Mist -- 55.0 54.0 96% 54 NA 30.13 1020.4
7:53 pm EDT 3.5 10.00 Overcast -- 55.0 54.0 96% NA NA 30.15 1021.1
6:53 pm EDT E 4.6 10.00 Overcast -- 55.0 53.1 93% 54 NA 30.17 1021.7
5:53 pm EDT SE 4.6 10.00 Overcast -- 55.0 52.0 90% 54 NA 30.18 1022.1
4:53 pm EDT SE 5.8 10.00 Overcast -- 56.0 51.1 84% 55 NA 30.20 1022.6
3:53 pm EDT SE 5.8 10.00 Overcast -- 57.0 48.9 74% 56 NA 30.21 1023.0
2:53 pm EDT 3.5 10.00 Overcast -- 59.0 46.0 62% NA NA 30.22 1023.4
1:53 pm EDT S 3.5 10.00 Overcast -- 59.0 45.0 60% NA NA 30.23 1023.6
12:53 pm EDT SE 5.8 10.00 Overcast -- 60.0 43.0 53% 60 NA 30.25 1024.3

Regional Weather Observation


Auburn-Lewiston, ME (KLEW)

Overcast
59.0 F

Waterville, Waterville Robert LaFleur Airport, ME (KWVL)

Overcast
57.0 F

Wiscasset Airport, ME (KIWI)

Overcast
59.0 F

Rockland, Knox County Regional Airport, ME (KRKD)

Overcast
60.0 F

Portland, Portland International Jetport, ME (KPWM)

Overcast
57.0 F

Fryeburg, Eastern Slopes Regional Airport, ME (KIZG)

Overcast
58.0 F